Погода в Каменке

Украина / Житомирская область     51°10′06″N   27°30′13″E
темп.,
°C
ветер,
м/с
пор.,
м/с
влажн.,
%
обл.,
%
осадки,
мм/ч
давл.,
гПа
погр.,
м
12 апреля, пн
пн1200:00+7юв396912 0.0 1026155
03:00+5юв267392 0.0 102697
06:00+4юв36741 0.0 102593
09:00+9юв36560 0.0 1024275
12:00+14юв343622 0.0 10231152
15:00+17юв343191 0.0 10201352
18:00+16юв3340100 0.0 10191168
21:00+10юв3662100 0.0 102097
13 апреля, вт
вт1300:00+8юв388193 0.0 1020176
03:00+6юв248399 0.0 102078
06:00+6юв228476 0.0 101941
09:00+10юв246495 0.0 1019255
12:00+16юв2243100 0.0 1018944
15:00+16вюв4346100 0.0 10171014
18:00+11юв4774100 0.0 1017373
21:00+10юв3790100 0.5 1016265
14 апреля, ср
ср1400:00+9ююв1395100 1.0 1016206
03:00+9вюв1296100 1.4 101591
06:00+8юв1297100 1.0 1014111
09:00+8юв1396100 1.9 1014208
12:00+8юз2496100 1.9 1014355
15:00+8ю1395100 3.4 1014175
18:00+9вюв2495100 0.9 1013229
21:00+8в2395100 1.8 101479
15 апреля, чт
чт1500:00+8в2594100 0.4 1013140
03:00+7всв2394100 0.4 101360
06:00+7св2294100 0.3 101350
09:00+9всв2485100 0.3 1013202
12:00+9св2487100 0.5 1013173
15:00+13в3566100 1.3 1011973
18:00+11в3674100 1.0 1011349
21:00+10св3783100 1.2 1011217
16 апреля, пт
пт1600:00+9св4108899 0.5 1010482
03:00+8всв499195 0.7 1010673
06:00+5всв399685 0.1 1011337
09:00+8всв3790100 0.3 1012593
12:00+10в5773100 0.5 10121311
15:00+10юв5661100 0.8 10131521
18:00+10вюв35616 0.0 10151112
21:00+6ю227893 0.0 101623